カタログに戻る

STARLINK-1361

運用中通信VLEO
NORAD 45567·PAYLOAD·🇺🇸 United States

打ち上げ Apr 22, 2020 から Cape Canaveral Space Force Station

Loading…

次のパス (今後24時間)

TLE

最新Source: CelesTrak SupGP

元期: Sep 14, 2026, 20:41 UTC

1 45567C 20025AN  26257.86229167  .00121090  00000+0  62046-3 0  2579
2 45567  53.0354 225.8998 0005566  59.9260 124.5649 15.80495189    17

AllMySatでSTARLINK-1361をリアルタイム追跡

Download on the App Store